TimeEST,TemperatureF,Dew PointF,Humidity,Sea Level PressureIn,VisibilityMPH,Wind Direction,Wind SpeedMPH,Gust SpeedMPH,PrecipitationIn,Events,Conditions,WindDirDegrees,DateUTC
12:15 AM,50.0,48.2,94,29.74,5.0,SSE,17.3,25.3,N/A,,Overcast,160,2014-01-06 05:15:00
12:34 AM,50.0,48.2,94,29.72,6.0,SSE,21.9,29.9,0.00,Rain,Light Rain,160,2014-01-06 05:34:00
12:47 AM,50.0,48.2,94,29.71,4.0,SSE,21.9,31.1,0.03,Rain,Light Rain,160,2014-01-06 05:47:00
12:51 AM,50.0,48.9,96,29.71,5.0,South,18.4,31.1,0.03,Rain,Light Rain,170,2014-01-06 05:51:00
1:00 AM,50.0,48.2,94,29.69,5.0,South,19.6,29.9,0.01,Rain,Light Rain,170,2014-01-06 06:00:00
1:51 AM,50.0,48.9,96,29.68,0.5,South,16.1,24.2,0.02,Rain,Light Rain,180,2014-01-06 06:51:00
2:51 AM,51.1,48.9,92,29.64,0.5,South,11.5,20.7,0.01,,Overcast,180,2014-01-06 07:51:00
2:58 AM,51.8,50.0,94,29.63,0.5,South,13.8,-,N/A,,Overcast,180,2014-01-06 07:58:00
3:18 AM,51.8,48.2,88,29.62,0.2,South,12.7,-,N/A,Fog,Fog,170,2014-01-06 08:18:00
3:51 AM,50.0,48.0,93,29.59,0.2,South,10.4,-,N/A,Fog,Fog,170,2014-01-06 08:51:00
4:51 AM,52.0,50.0,93,29.55,0.2,South,13.8,19.6,N/A,Fog,Fog,180,2014-01-06 09:51:00
5:51 AM,52.0,51.1,97,29.52,0.2,South,15.0,24.2,N/A,Fog,Fog,180,2014-01-06 10:51:00
6:51 AM,51.1,50.0,96,29.46,0.2,South,13.8,-,0.01,Fog,Fog,170,2014-01-06 11:51:00
7:48 AM,51.8,51.8,100,29.44,0.8,South,17.3,29.9,0.02,Rain,Light Rain,180,2014-01-06 12:48:00
7:51 AM,52.0,51.1,97,29.44,0.8,South,18.4,26.5,0.02,Rain,Light Rain,180,2014-01-06 12:51:00
8:01 AM,51.8,50.0,94,29.43,1.2,South,15.0,25.3,0.00,Rain,Light Rain,180,2014-01-06 13:01:00
8:47 AM,51.8,50.0,94,29.42,2.0,South,13.8,19.6,0.06,Rain,Light Rain,190,2014-01-06 13:47:00
8:51 AM,51.1,50.0,96,29.41,2.0,South,13.8,19.6,0.06,Rain,Light Rain,180,2014-01-06 13:51:00
9:08 AM,50.0,48.2,94,29.46,2.0,West,19.6,29.9,0.05,Rain,Rain,270,2014-01-06 14:08:00
9:14 AM,50.0,44.6,82,29.46,9.0,West,15.0,28.8,0.06,Rain,Light Rain,270,2014-01-06 14:14:00
9:51 AM,48.9,43.0,80,29.50,7.0,West,17.3,24.2,0.06,Rain,Light Rain,260,2014-01-06 14:51:00
10:51 AM,48.0,41.0,77,29.47,10.0,WNW,8.1,17.3,0.08,,Overcast,300,2014-01-06 15:51:00
11:51 AM,46.9,37.0,68,29.45,10.0,West,12.7,23.0,N/A,,Overcast,270,2014-01-06 16:51:00
12:01 PM,46.4,35.6,66,29.45,10.0,WNW,17.3,26.5,N/A,,Overcast,300,2014-01-06 17:01:00
12:51 PM,44.1,37.0,76,29.45,7.0,West,13.8,-,0.01,Rain,Light Rain,270,2014-01-06 17:51:00
1:12 PM,42.8,33.8,70,29.47,8.0,West,18.4,28.8,0.01,Rain,Light Rain,260,2014-01-06 18:12:00
1:51 PM,39.9,30.0,68,29.47,10.0,WSW,12.7,23.0,0.01,Rain,Light Rain,250,2014-01-06 18:51:00
2:51 PM,41.0,28.9,62,29.49,10.0,West,15.0,-,0.00,,Overcast,260,2014-01-06 19:51:00
3:51 PM,39.9,28.0,63,29.50,10.0,WNW,16.1,23.0,N/A,,Overcast,300,2014-01-06 20:51:00
4:51 PM,39.0,21.9,50,29.52,10.0,NW,17.3,-,N/A,,Overcast,310,2014-01-06 21:51:00
5:51 PM,37.0,19.0,48,29.55,10.0,NW,19.6,28.8,N/A,,Overcast,310,2014-01-06 22:51:00
6:51 PM,36.0,16.0,44,29.59,10.0,WNW,15.0,26.5,N/A,,Overcast,300,2014-01-06 23:51:00
7:51 PM,35.1,12.9,40,29.62,10.0,West,24.2,32.2,N/A,,Overcast,280,2014-01-07 00:51:00
8:51 PM,33.1,12.0,42,29.64,10.0,West,27.6,36.8,N/A,,Overcast,280,2014-01-07 01:51:00
9:51 PM,30.0,9.0,41,29.67,10.0,West,23.0,36.8,N/A,,Partly Cloudy,260,2014-01-07 02:51:00
10:51 PM,26.1,6.1,43,29.69,10.0,West,24.2,35.7,N/A,,Partly Cloudy,280,2014-01-07 03:51:00
11:51 PM,21.0,1.9,44,29.73,10.0,West,29.9,39.1,N/A,,Partly Cloudy,270,2014-01-07 04:51:00